Location: Newark
(49.8969°N, 3.3422°E)
Time: 18:49:00
(UTC+00:00)

Tiros 1 - Pass Details

Date: 13 May 2021
Orbit: 630 x 664 km, 48.4° (Epoch: 11 June)

Event Time Altitude Azimuth Distance (km) Brightness Sun altitude
Exits shadow 02:42:29 - 259° (W) 2,116 9.3 -11.0°
Reaches altitude 10° 02:42:36 10° 259° (W) 2,071 9.3 -11.0°
Maximum altitude 02:47:22 74° 175° (S) 684 7.1 -10.5°
Drops below altitude 10° 02:52:06 10° 91° (E) 2,052 10.4 -10.0°
Sets 02:54:25 0° 90° (E) 2,957 11.3 -9.7°
